Tracking 19576 objects as of 18-Feb-2019
HD Live streaming from Space Station
objects crossing your sky now

AMC-9 (GE-12)

Track AMC-9 (GE-12) now!
AMC-9 (GE-12) is classified as:


NORAD ID: 27820
Int'l Code: 2003-024A
Perigee: 36,061.0 km
Apogee: 36,231.1 km
Inclination: 1.3 °
Period: 1,454.1 minutes
Semi major axis: 42517 km
RCS: 43.0775 m2 (large)
Launch date: June 6, 2003
Source: SOCIETE EUROPEENNE DES SATELLITES (SES)
Launch site: TYURATAM MISSILE AND SPACE COMPLEX (TTMTR)

Television programmers, government agencies and enterprise networks; 24 Ku-band; CONUS and Mexico.
aabbcc
Your satellite tracking list
Your tracking list is empty




NASA's NSSDC Master Catalog

Two Line Element Set (TLE):
1 27820U 03024A   19048.61901291 -.00000041  00000-0  00000+0 0  9994
2 27820   1.3475  89.9420 0020004 256.6323 294.2760  0.99027935 57439
Source of the keplerian elements: AFSPC